TimeEET,TemperatureF,Dew PointF,Humidity,Sea Level PressureIn,VisibilityMPH,Wind Direction,Wind SpeedMPH,Gust SpeedMPH,PrecipitationIn,Events,Conditions,WindDirDegrees,DateUTC
12:20 AM,35.6,32.0,87,30.18,-9999.0,Calm,Calm,-,N/A,,Clear,0,2013-01-08 22:20:00
12:50 AM,35.6,33.8,93,30.18,-9999.0,Calm,Calm,-,N/A,,Clear,0,2013-01-08 22:50:00
1:20 AM,33.8,32.0,93,30.21,-9999.0,Calm,Calm,-,N/A,,Clear,0,2013-01-08 23:20:00
1:50 AM,37.4,33.8,87,30.18,-9999.0,NNW,2.3,-,N/A,,Clear,330,2013-01-08 23:50:00
2:00 AM,37,33,79,30.20,6,NNW,2.3,,,,Clear,330,2013-01-09 00:00:00
2:20 AM,35.6,32.0,87,30.18,-9999.0,Calm,Calm,-,N/A,,Clear,0,2013-01-09 00:20:00
2:50 AM,35.6,33.8,93,30.18,-9999.0,Calm,Calm,-,N/A,,Clear,0,2013-01-09 00:50:00
3:20 AM,35.6,32.0,87,30.18,-9999.0,Calm,Calm,-,N/A,,Clear,0,2013-01-09 01:20:00
3:50 AM,35.6,33.8,93,30.18,-9999.0,Calm,Calm,-,N/A,,Clear,0,2013-01-09 01:50:00
4:20 AM,35.6,32.0,87,30.18,-9999.0,Calm,Calm,-,N/A,,Clear,0,2013-01-09 02:20:00
4:50 AM,33.8,32.0,93,30.18,-9999.0,Calm,Calm,-,N/A,,Clear,0,2013-01-09 02:50:00
5:20 AM,32.0,30.2,93,30.18,-9999.0,Calm,Calm,-,N/A,,Clear,0,2013-01-09 03:20:00
5:50 AM,32.0,30.2,93,30.15,-9999.0,Calm,Calm,-,N/A,,Clear,0,2013-01-09 03:50:00
6:20 AM,32.0,30.2,93,30.15,-9999.0,Calm,Calm,-,N/A,,Clear,0,2013-01-09 04:20:00
6:50 AM,32.0,30.2,93,30.18,-9999.0,Calm,Calm,-,N/A,,Clear,0,2013-01-09 04:50:00
7:20 AM,32.0,30.2,93,30.18,-9999.0,Calm,Calm,-,N/A,,Clear,0,2013-01-09 05:20:00
7:50 AM,32.0,30.2,93,30.18,-9999.0,Calm,Calm,-,N/A,,Clear,0,2013-01-09 05:50:00
8:00 AM,32,31,92,30.20,12,Calm,Calm,,,,,,2013-01-09 06:00:00
8:20 AM,32.0,30.2,93,30.18,-9999.0,Calm,Calm,-,N/A,,Clear,0,2013-01-09 06:20:00
8:50 AM,32.0,30.2,93,30.18,-9999.0,Calm,Calm,-,N/A,,Clear,0,2013-01-09 06:50:00
9:20 AM,35.6,32.0,87,30.18,-9999.0,Calm,Calm,-,N/A,,Clear,0,2013-01-09 07:20:00
9:50 AM,39.2,33.8,81,30.21,-9999.0,Calm,Calm,-,N/A,,Clear,0,2013-01-09 07:50:00
10:20 AM,41.0,35.6,81,30.21,-9999.0,Calm,Calm,-,N/A,,Clear,0,2013-01-09 08:20:00
10:50 AM,46.4,39.2,76,30.21,-9999.0,Calm,Calm,-,N/A,,Clear,0,2013-01-09 08:50:00
11:20 AM,48.2,41.0,76,30.21,-9999.0,Calm,Calm,-,N/A,,Clear,0,2013-01-09 09:20:00
11:50 AM,51.8,42.8,71,30.21,6.2,Calm,Calm,-,N/A,,Scattered Clouds,0,2013-01-09 09:50:00
12:20 PM,51.8,42.8,71,30.21,6.2,Calm,Calm,-,N/A,,Scattered Clouds,0,2013-01-09 10:20:00
2:00 PM,53,45,67,30.20,12,SSE,4.6,,,,Scattered Clouds,150,2013-01-09 12:00:00
2:20 PM,53.6,44.6,72,30.18,6.2,SSE,5.8,-,N/A,,Mostly Cloudy,150,2013-01-09 12:20:00
2:50 PM,53.6,46.4,77,30.18,6.2,ESE,4.6,-,N/A,,Mostly Cloudy,120,2013-01-09 12:50:00
3:20 PM,53.6,46.4,77,30.18,6.2,ESE,4.6,-,N/A,,Mostly Cloudy,120,2013-01-09 13:20:00
3:50 PM,53.6,46.4,77,30.18,6.2,ENE,4.6,-,N/A,,Mostly Cloudy,60,2013-01-09 13:50:00
4:20 PM,53.6,46.4,77,30.18,6.2,ENE,4.6,-,N/A,,Mostly Cloudy,70,2013-01-09 14:20:00
4:50 PM,53.6,46.4,77,30.18,6.2,ENE,4.6,-,N/A,,Mostly Cloudy,70,2013-01-09 14:50:00
5:20 PM,51.8,48.2,88,30.18,6.2,North,3.5,-,N/A,,Partly Cloudy,360,2013-01-09 15:20:00
5:50 PM,50.0,46.4,87,30.15,6.2,NNW,3.5,-,N/A,,Scattered Clouds,340,2013-01-09 15:50:00
6:20 PM,48.2,44.6,87,30.15,6.2,NNW,3.5,-,N/A,,Scattered Clouds,340,2013-01-09 16:20:00
6:50 PM,44.6,42.8,93,30.15,6.2,SSW,3.5,-,N/A,,Scattered Clouds,200,2013-01-09 16:50:00
7:20 PM,44.6,42.8,93,30.15,6.2,Calm,Calm,-,N/A,,Scattered Clouds,0,2013-01-09 17:20:00
7:50 PM,42.8,42.8,100,30.15,6.2,Calm,Calm,-,N/A,,Mostly Cloudy,0,2013-01-09 17:50:00
8:00 PM,44,42,89,30.18,6,Calm,Calm,,,,Scattered Clouds,,2013-01-09 18:00:00
8:20 PM,42.8,42.8,100,30.15,6.2,Calm,Calm,-,N/A,,Mostly Cloudy,0,2013-01-09 18:20:00
8:50 PM,42.8,42.8,100,30.18,6.2,Calm,Calm,-,N/A,,Mostly Cloudy,0,2013-01-09 18:50:00
9:20 PM,42.8,42.8,100,30.18,6.2,Calm,Calm,-,N/A,,Mostly Cloudy,0,2013-01-09 19:20:00
9:50 PM,44.6,41.0,87,30.18,6.2,SE,3.5,-,N/A,,Mostly Cloudy,130,2013-01-09 19:50:00
10:20 PM,44.6,41.0,87,30.18,6.2,Calm,Calm,-,N/A,,Mostly Cloudy,0,2013-01-09 20:20:00
10:50 PM,44.6,41.0,87,30.15,6.2,Calm,Calm,-,N/A,,Overcast,0,2013-01-09 20:50:00
11:20 PM,44.6,41.0,87,30.15,6.2,Calm,Calm,-,N/A,,Overcast,0,2013-01-09 21:20:00
11:50 PM,44.6,41.0,87,30.15,6.2,Calm,Calm,-,N/A,,Mostly Cloudy,0,2013-01-09 21:50:00